CW7443 Weather Reports


time (UTC)temp
C
wind
direction
speed
KPH
gust
KPH
rain 1hr
cm
rain 24hr
cm
rain mn
cm
humidity
%
barometer
mb
20260510175319 18 29 1.6 6.4 0.00 0.00 0.00 47 1016.3
20260510174845 17 30 1.6 6.4 0.00 0.00 0.00 53 1016.3
20260510174329 17 40 0.0 6.4 0.00 0.00 0.00 51 1016.7
20260510173834 17 42 0.0 6.4 0.00 0.00 0.00 50 1016.7
20260510173317 17 45 1.6 6.4 0.00 0.00 0.00 47 1016.7
20260510172821 17 48 1.6 3.2 0.00 0.00 0.00 49 1016.6
20260510172347 17 48 1.6 3.2 0.00 0.00 0.00 50 1016.6
20260510171815 17 45 0.0 6.4 0.00 0.00 0.00 50 1016.6
20260510171344 17 49 1.6 6.4 0.00 0.00 0.00 47 1016.7
20260510170828 17 46 1.6 6.4 0.00 0.00 0.00 50 1016.7
20260510170314 17 51 1.6 6.4 0.00 0.00 0.00 48 1016.7
20260510165822 17 48 1.6 6.4 0.00 0.00 0.00 47 1016.7
20260510165327 17 51 1.6 6.4 0.00 0.00 0.00 47 1016.7
20260510164817 17 38 1.6 6.4 0.00 0.00 0.00 47 1016.7
20260510164318 17 31 0.0 4.8 0.00 0.00 0.00 45 1016.7
20260510163825 17 30 0.0 3.2 0.00 0.00 0.00 47 1016.7
20260510163331 17 32 1.6 3.2 0.00 0.00 0.00 46 1016.7
20260510162835 17 41 0.0 4.8 0.00 0.00 0.00 46 1016.7
20260510162324 17 41 1.6 4.8 0.00 0.00 0.00 47 1016.7
20260510161833 17 30 0.0 4.8 0.00 0.00 0.00 45 1016.7
20260510161337 16 30 1.6 4.8 0.00 0.00 0.00 48 1016.5
20260510160822 16 17 0.0 3.2 0.00 0.00 0.00 50 1016.5
20260510160331 16 17 0.0 8.0 0.00 0.00 0.00 55 1016.5
20260510155837 16 13 0.0 8.0 0.00 0.00 0.00 50 1016.4
20260510155321 16 25 0.0 3.2 0.00 0.00 0.00 58 1016.4
20260510154838 15 27 0.0 3.2 0.00 0.00 0.00 58 1016.4
20260510154356 15 27 0.0 3.2 0.00 0.00 0.00 57 1016.2
20260510153821 15 27 0.0 3.2 0.00 0.00 0.00 55 1016.2
20260510153329 15 30 0.0 3.2 0.00 0.00 0.00 58 1016.2
20260510152833 15 30 0.0 3.2 0.00 0.00 0.00 58 1016.1
20260510152321 15 30 0.0 3.2 0.00 0.00 0.00 60 1016.1
20260510151818 15 30 0.0 6.4 0.00 0.00 0.00 58 1016.1
20260510151324 15 30 1.6 6.4 0.00 0.00 0.00 59 1015.9
20260510150834 15 36 0.0 3.2 0.00 0.00 0.00 62 1015.9
20260510150340 14 36 0.0 3.2 0.00 0.00 0.00 59 1015.9
20260510145823 14 37 0.0 3.2 0.00 0.00 0.00 60 1015.6
20260510145327 14 34 0.0 4.8 0.00 0.00 0.00 62 1015.6
20260510144837 14 34 0.0 4.8 0.00 0.00 0.00 61 1015.6
20260510144323 13 34 1.6 4.8 0.00 0.00 0.00 60 1015.4
20260510143829 13 301 0.0 0.0 0.00 0.00 0.00 62 1015.4
20260510143335 13 350 0.0 0.0 0.00 0.00 0.00 62 1015.4
20260510142815 13 350 0.0 0.0 0.00 0.00 0.00 63 1015.2
20260510142327 13 349 0.0 3.2 0.00 0.00 0.00 62 1015.2
20260510141815 13 350 0.0 3.2 0.00 0.00 0.00 65 1015.2
20260510141318 13 349 0.0 0.0 0.00 0.00 0.00 62 1015.4
20260510140826 13 349 0.0 0.0 0.00 0.00 0.00 64 1015.4
20260510140330 13 349 0.0 0.0 0.00 0.00 0.00 65 1015.4
20260510135857 12 349 0.0 0.0 0.00 0.00 0.00 64 1015.1
20260510135320 12 349 0.0 1.6 0.00 0.00 0.00 65 1015.1
20260510134825 12 349 0.0 1.6 0.00 0.00 0.00 65 1015.1
20260510134327 12 349 0.0 3.2 0.00 0.00 0.00 65 1015.1
20260510133832 12 349 0.0 3.2 0.00 0.00 0.00 67 1015.1
20260510133316 12 349 0.0 0.0 0.00 0.00 0.00 67 1015.1
20260510132824 12 349 0.0 0.0 0.00 0.00 0.00 69 1015.0
20260510132349 12 349 0.0 0.0 0.00 0.00 0.00 67 1015.0
20260510131834 12 349 0.0 0.0 0.00 0.00 0.00 69 1015.0
20260510131318 11 349 0.0 0.0 0.00 0.00 0.00 69 1014.6
20260510130823 11 349 0.0 0.0 0.00 0.00 0.00 69 1014.6
20260510130328 11 349 0.0 0.0 0.00 0.00 0.00 69 1014.6
20260510125830 11 349 0.0 0.0 0.00 0.00 0.00 70 1014.4
20260510125313 11 349 0.0 0.0 0.00 0.00 0.00 72 1014.4
20260510124824 11 349 0.0 0.0 0.00 0.00 0.00 72 1014.4
20260510124327 11 349 0.0 0.0 0.00 0.00 0.00 72 1014.4
20260510123856 11 349 0.0 0.0 0.00 0.00 0.00 72 1014.4
20260510123340 11 349 0.0 0.0 0.00 0.00 0.00 70 1014.4
20260510122824 11 349 0.0 0.0 0.00 0.00 0.00 70 1014.3
20260510122333 11 349 0.0 0.0 0.00 0.00 0.00 71 1014.3
20260510121822 11 349 0.0 3.2 0.00 0.00 0.00 71 1014.3
20260510121324 11 349 0.0 3.2 0.00 0.00 0.00 71 1014.1
20260510120829 11 349 0.0 0.0 0.00 0.00 0.00 71 1014.1
20260510120335 11 349 0.0 0.0 0.00 0.00 0.00 72 1014.1
20260510115836 11 349 0.0 0.0 0.00 0.00 0.00 73 1014.0
20260510115348 11 349 0.0 0.0 0.00 0.00 0.00 74 1014.0
20260510114832 11 349 0.0 0.0 0.00 0.00 0.00 74 1014.0
20260510114336 11 349 0.0 0.0 0.00 0.00 0.00 74 1013.4
20260510113820 11 349 0.0 0.0 0.00 0.00 0.00 75 1013.4
20260510113325 11 349 0.0 0.0 0.00 0.00 0.00 76 1013.4
20260510112829 11 349 0.0 0.0 0.00 0.00 0.00 75 1013.1
20260510112320 11 349 0.0 0.0 0.00 0.00 0.00 75 1013.1
20260510111845 11 349 0.0 0.0 0.00 0.00 0.00 75 1013.1
20260510111330 11 349 0.0 0.0 0.00 0.00 0.00 75 1013.0
20260510110819 11 349 0.0 0.0 0.00 0.00 0.00 75 1013.0
20260510110342 11 349 0.0 0.0 0.00 0.00 0.00 77 1013.0
20260510105824 12 349 0.0 0.0 0.00 0.00 0.00 78 1012.7
20260510105329 12 349 0.0 0.0 0.00 0.00 0.00 79 1012.7
20260510104815 12 349 0.0 0.0 0.00 0.00 0.00 79 1012.7
20260510104331 12 349 0.0 0.0 0.00 0.00 0.00 80 1012.4
20260510103856 12 349 0.0 0.0 0.00 0.00 0.00 80 1012.4
20260510103318 12 340 0.0 0.0 0.00 0.00 0.00 80 1012.4
20260510102820 12 340 0.0 0.0 0.00 0.00 0.00 80 1012.0
20260510102326 12 340 0.0 0.0 0.00 0.00 0.00 81 1012.0
20260510101852 12 340 0.0 0.0 0.00 0.00 0.00 82 1012.0
20260510101335 12 340 0.0 0.0 0.00 0.00 0.00 82 1011.9
20260510100825 12 340 0.0 0.0 0.00 0.00 0.00 82 1011.9
20260510100330 12 340 0.0 0.0 0.00 0.00 0.00 82 1011.9
20260510095832 12 340 0.0 0.0 0.00 0.00 0.00 82 1011.4
20260510095337 13 340 0.0 0.0 0.00 0.00 0.00 82 1011.4
20260510094842 13 340 0.0 1.6 0.00 0.00 0.00 82 1011.4
20260510094328 13 340 0.0 1.6 0.00 0.00 0.00 82 1011.3
20260510093854 13 340 0.0 0.0 0.00 0.00 0.00 82 1011.3
20260510093321 13 340 0.0 0.0 0.00 0.00 0.00 82 1011.3
20260510092827 13 340 0.0 0.0 0.00 0.00 0.00 81 1010.8
20260510092317 13 340 0.0 0.0 0.00 0.00 0.00 82 1010.8
20260510091826 13 340 0.0 0.0 0.00 0.00 0.00 81 1010.8
20260510091330 13 340 0.0 0.0 0.00 0.00 0.00 82 1010.7
20260510090839 13 340 0.0 0.0 0.00 0.00 0.00 82 1010.7
20260510090323 13 340 0.0 0.0 0.00 0.00 0.00 82 1010.7
20260510085826 13 340 0.0 0.0 0.00 0.00 0.00 82 1010.2
20260510085333 13 340 0.0 0.0 0.00 0.00 0.00 82 1010.2
20260510084822 13 340 0.0 0.0 0.00 0.00 0.00 82 1010.2
20260510084325 13 339 0.0 0.0 0.00 0.00 0.00 82 1009.9
20260510083832 13 339 0.0 0.0 0.00 0.00 0.00 81 1009.9
20260510083314 13 339 0.0 0.0 0.00 0.00 0.00 80 1009.9
20260510082837 14 339 0.0 1.6 0.00 0.00 0.00 79 1009.8
20260510082339 14 338 0.0 6.4 0.00 0.00 0.00 79 1009.8
20260510081823 14 51 0.0 6.4 0.00 0.00 0.00 78 1009.8
20260510081325 14 112 0.0 0.0 0.00 0.00 0.00 78 1009.7
20260510080834 14 112 0.0 0.0 0.00 0.00 0.00 78 1009.7
20260510080322 14 112 0.0 0.0 0.00 0.00 0.00 78 1009.7
20260510075824 14 112 0.0 0.0 0.00 0.00 0.00 78 1010.0
20260510075336 14 112 0.0 0.0 0.00 0.00 0.00 79 1010.0
20260510074821 14 112 0.0 0.0 0.00 0.00 0.00 78 1010.0
20260510074327 14 112 0.0 0.0 0.00 0.00 0.00 80 1009.7
20260510073830 14 112 0.0 0.0 0.00 0.00 0.00 80 1009.7
20260510073317 14 112 0.0 0.0 0.00 0.00 0.00 77 1009.7
20260510072817 15 112 0.0 1.6 0.00 0.00 0.00 76 1009.8
20260510072323 15 112 0.0 1.6 0.00 0.00 0.00 77 1009.8
20260510071834 15 112 0.0 0.0 0.00 0.00 0.00 76 1009.8
20260510071336 15 112 0.0 0.0 0.00 0.00 0.00 76 1009.7
20260510070820 15 112 0.0 0.0 0.00 0.00 0.00 75 1009.7
20260510070346 15 112 0.0 0.0 0.00 0.00 0.00 75 1009.7
20260510065827 16 112 0.0 0.0 0.00 0.03 0.00 72 1009.7
20260510065331 16 112 0.0 0.0 0.00 0.03 0.00 71 1009.7
20260510064815 16 112 0.0 0.0 0.00 0.03 0.00 71 1009.7
20260510064319 16 112 0.0 4.8 0.00 0.03 0.00 71 1009.9
20260510063822 16 160 0.0 6.4 0.00 0.03 0.00 72 1009.9
20260510063349 16 107 1.6 6.4 0.00 0.03 0.00 72 1009.9
20260510062831 16 111 0.0 8.0 0.00 0.03 0.00 74 1010.2
20260510062356 16 152 1.6 9.7 0.00 0.03 0.00 75 1010.2
20260510061822 16 107 1.6 9.7 0.00 0.03 0.00 75 1010.2
20260510061324 16 164 0.0 8.0 0.00 0.03 0.00 75 1010.2
20260510060832 16 136 1.6 6.4 0.00 0.03 0.00 76 1010.2
20260510060318 16 97 1.6 6.4 0.00 0.03 0.00 76 1010.2
20260510055823 16 130 1.6 6.4 0.00 0.05 0.00 77 1009.8
20260510055349 16 158 0.0 4.8 0.00 0.05 0.00 76 1009.8
20260510054853 16 158 0.0 4.8 0.00 0.05 0.00 76 1009.8
20260510054317 16 134 0.0 6.4 0.00 0.05 0.00 75 1009.8
20260510053823 16 184 0.0 6.4 0.00 0.05 0.00 75 1009.8
20260510053327 16 132 0.0 6.4 0.00 0.05 0.00 75 1009.8
20260510052833 16 158 0.0 8.0 0.00 0.05 0.00 75 1009.6
20260510052317 16 150 0.0 8.0 0.00 0.05 0.00 74 1009.6
20260510051843 16 144 0.0 9.7 0.00 0.05 0.00 74 1009.6
20260510051323 16 148 1.6 9.7 0.00 0.05 0.00 75 1009.7
20260510050830 16 164 0.0 6.4 0.00 0.05 0.00 75 1009.7
20260510050319 16 126 0.0 6.4 0.00 0.05 0.00 75 1009.7
20260510045824 16 98 0.0 9.7 0.00 0.05 0.00 75 1009.5
20260510045329 16 153 1.6 9.7 0.00 0.05 0.00 75 1009.5
20260510044833 16 146 1.6 8.0 0.00 0.05 0.00 74 1009.5
20260510044335 16 144 1.6 8.0 0.00 0.05 0.00 75 1009.5
20260510043820 16 139 0.0 4.8 0.00 0.05 0.00 75 1009.5
20260510043326 15 134 1.6 4.8 0.00 0.05 0.00 75 1009.5
20260510042831 15 317 0.0 4.8 0.00 0.05 0.00 75 1009.2
20260510042336 15 198 0.0 0.0 0.00 0.05 0.00 76 1009.2
20260510041821 15 198 0.0 0.0 0.00 0.05 0.00 75 1009.2
20260510041331 15 198 0.0 3.2 0.00 0.05 0.00 76 1009.2
20260510040835 15 198 0.0 3.2 0.00 0.05 0.00 75 1009.2
20260510040320 15 123 0.0 0.0 0.00 0.05 0.00 78 1009.2
20260510035824 15 123 0.0 0.0 0.00 0.05 0.05 77 1009.2
20260510035331 15 123 0.0 0.0 0.00 0.05 0.05 79 1009.2
20260510034839 15 123 0.0 0.0 0.00 0.05 0.05 81 1009.2
20260510034320 15 123 0.0 0.0 0.00 0.05 0.05 80 1009.0
20260510033844 15 123 0.0 0.0 0.00 0.05 0.05 79 1009.0
20260510033329 15 123 0.0 0.0 0.00 0.05 0.05 77 1009.0
20260510032831 15 123 0.0 0.0 0.00 0.05 0.05 77 1008.9
20260510032336 15 123 0.0 1.6 0.00 0.05 0.05 75 1008.9
20260510031840 15 123 0.0 1.6 0.00 0.05 0.05 75 1008.9
20260510031322 16 123 0.0 0.0 0.00 0.05 0.05 76 1008.8
20260510030829 16 123 0.0 0.0 0.00 0.05 0.05 77 1008.8
20260510030338 16 123 0.0 0.0 0.00 0.05 0.05 75 1008.8
20260510025821 16 123 0.0 0.0 0.00 0.05 0.05 77 1008.8
20260510025346 16 123 0.0 0.0 0.00 0.05 0.05 75 1008.8
20260510024831 16 123 0.0 0.0 0.00 0.05 0.05 76 1008.8
20260510024336 16 123 0.0 0.0 0.00 0.05 0.05 75 1008.7
20260510023820 16 146 0.0 4.8 0.00 0.05 0.05 75 1008.7
20260510023326 15 146 0.0 4.8 0.00 0.05 0.05 74 1008.7
20260510022832 15 100 0.0 0.0 0.00 0.05 0.05 76 1008.6
20260510022337 15 100 0.0 0.0 0.00 0.05 0.05 75 1008.6
20260510021823 15 100 0.0 0.0 0.00 0.05 0.05 75 1008.6
20260510021326 16 100 0.0 0.0 0.00 0.05 0.05 74 1008.4
20260510020815 16 100 0.0 0.0 0.00 0.05 0.05 72 1008.4
20260510020327 16 100 0.0 0.0 0.00 0.05 0.05 72 1008.4
20260510015828 16 100 0.0 0.0 0.00 0.05 0.05 72 1008.1
20260510015336 16 99 0.0 0.0 0.00 0.05 0.05 70 1008.1
20260510014819 17 113 0.0 0.0 0.00 0.05 0.05 69 1008.1
20260510014323 17 113 0.0 1.6 0.00 0.05 0.05 69 1008.1
20260510013828 17 113 0.0 1.6 0.00 0.05 0.05 68 1008.1
20260510013334 17 167 0.0 1.6 0.00 0.05 0.05 68 1008.1
20260510012838 17 167 0.0 0.0 0.00 0.05 0.05 67 1007.6
20260510012324 17 167 0.0 0.0 0.00 0.05 0.05 66 1007.6
20260510011830 17 148 0.0 0.0 0.00 0.05 0.05 65 1007.6
20260510011320 17 148 0.0 0.0 0.00 0.05 0.05 65 1007.7
20260510010825 17 148 0.0 1.6 0.00 0.05 0.05 65 1007.7
20260510010331 17 148 0.0 1.6 0.00 0.05 0.05 65 1007.7
20260510005833 18 148 0.0 1.6 0.00 0.05 0.05 66 1007.6
20260510005338 18 148 0.0 0.0 0.00 0.05 0.05 63 1007.6
20260510004824 18 148 0.0 3.2 0.00 0.05 0.05 62 1007.6
20260510004330 18 204 0.0 3.2 0.00 0.05 0.05 61 1007.5
20260510003838 18 360 0.0 3.2 0.00 0.05 0.05 61 1007.5
20260510003320 18 360 0.0 8.0 0.00 0.05 0.05 60 1007.5
20260510002821 19 169 0.0 8.0 0.00 0.05 0.05 59 1007.1
20260510002327 19 170 1.6 8.0 0.00 0.05 0.05 58 1007.1
20260510001836 19 149 0.0 1.6 0.00 0.05 0.05 58 1007.1
20260510001322 19 148 0.0 3.2 0.00 0.05 0.05 57 1007.0
20260510000828 20 149 0.0 4.8 0.00 0.05 0.05 56 1007.0
20260510000335 20 124 1.6 4.8 0.00 0.05 0.05 56 1007.0
20260509235838 20 198 1.6 6.4 0.00 0.05 0.05 56 1007.0
20260509235343 20 148 1.6 9.7 0.00 0.05 0.05 56 1007.0
20260509234828 20 157 3.2 9.7 0.00 0.05 0.05 57 1007.0
20260509234330 20 133 1.6 6.4 0.00 0.05 0.05 58 1006.9
20260509233839 20 115 1.6 8.0 0.00 0.05 0.05 58 1006.9
20260509233323 20 101 1.6 11.3 0.00 0.05 0.05 57 1006.9
20260509232826 20 161 1.6 11.3 0.00 0.05 0.05 57 1006.6
20260509232335 20 254 0.0 9.7 0.00 0.05 0.05 57 1006.6
20260509231823 20 240 3.2 12.9 0.00 0.05 0.05 56 1006.6
20260509231326 20 161 1.6 12.9 0.00 0.05 0.05 56 1006.6
20260509230831 20 142 4.8 14.5 0.00 0.05 0.05 56 1006.6
20260509230317 20 290 3.2 14.5 0.00 0.05 0.05 55 1006.6
20260509225843 20 147 3.2 17.7 0.00 0.05 0.05 55 1006.5
20260509225330 20 153 1.6 17.7 0.00 0.05 0.05 54 1006.5
20260509224819 20 240 3.2 9.7 0.00 0.05 0.05 54 1006.5
20260509224343 20 54 1.6 8.0 0.00 0.05 0.05 57 1006.5
20260509223830 20 169 1.6 14.5 0.00 0.05 0.05 55 1006.5
20260509223319 20 197 1.6 14.5 0.00 0.05 0.05 55 1006.5
20260509222822 21 280 4.8 14.5 0.00 0.05 0.05 55 1006.6
20260509222334 21 185 3.2 14.5 0.00 0.05 0.05 55 1006.6
20260509221842 21 261 4.8 11.3 0.00 0.05 0.05 55 1006.6
20260509221327 21 167 1.6 11.3 0.00 0.05 0.05 55 1006.7
20260509220832 21 177 3.2 17.7 0.00 0.05 0.05 56 1006.7
20260509220321 21 188 4.8 17.7 0.00 0.05 0.05 54 1006.7
20260509215824 21 55 3.2 14.5 0.00 0.05 0.05 55 1006.8
20260509215329 21 237 1.6 11.3 0.00 0.05 0.05 58 1006.8
20260509214813 21 205 4.8 17.7 0.00 0.05 0.05 55 1006.8
20260509214339 21 192 3.2 17.7 0.00 0.05 0.05 54 1006.9
20260509213824 21 134 1.6 9.7 0.00 0.05 0.05 55 1006.9
20260509213317 21 254 0.0 14.5 0.00 0.05 0.05 57 1006.9
20260509212824 21 157 4.8 14.5 0.00 0.05 0.05 58 1006.9
20260509212329 21 127 4.8 17.7 0.00 0.05 0.05 54 1006.9
20260509211838 21 202 1.6 17.7 0.00 0.05 0.05 55 1006.9
20260509211319 21 290 4.8 19.3 0.00 0.05 0.05 54 1007.0
20260509210827 21 155 3.2 19.3 0.00 0.05 0.05 56 1007.0
20260509210316 21 238 1.6 16.1 0.00 0.05 0.05 58 1007.0
20260509205822 21 156 4.8 16.1 0.00 0.05 0.05 58 1007.1
20260509205328 21 135 1.6 11.3 0.00 0.05 0.05 56 1007.1
20260509204833 21 159 3.2 12.9 0.00 0.05 0.05 56 1007.1
20260509204315 21 78 4.8 12.9 0.00 0.05 0.05 60 1007.1
20260509203831 21 140 4.8 16.1 0.00 0.05 0.05 56 1007.1
20260509203335 21 146 3.2 16.1 0.00 0.05 0.05 58 1007.1
20260509202856 20 146 6.4 16.1 0.00 0.05 0.05 56 1007.1
20260509202320 20 101 4.8 16.1 0.00 0.05 0.05 54 1007.1
20260509201826 20 143 3.2 17.7 0.00 0.05 0.05 57 1007.1
20260509201328 20 84 4.8 19.3 0.00 0.05 0.05 58 1007.5
20260509200855 20 227 4.8 19.3 0.00 0.05 0.05 58 1007.5
20260509200340 21 190 4.8 16.1 0.00 0.05 0.05 56 1007.5
20260509195841 20 215 1.6 14.5 0.00 0.05 0.05 59 1007.6
20260509195326 20 130 1.6 14.5 0.00 0.05 0.05 59 1007.6
20260509194832 20 271 1.6 11.3 0.00 0.05 0.05 61 1007.6
20260509194335 20 130 3.2 11.3 0.00 0.05 0.05 60 1007.7
20260509193818 20 151 0.0 11.3 0.00 0.05 0.05 61 1007.7
20260509193326 20 184 1.6 11.3 0.00 0.05 0.05 61 1007.7
20260509192835 20 256 4.8 11.3 0.00 0.05 0.05 62 1008.0
20260509192319 20 163 3.2 12.9 0.00 0.05 0.05 65 1008.0
20260509191829 19 137 1.6 12.9 0.00 0.05 0.05 66 1008.0
20260509191352 19 238 3.2 14.5 0.00 0.05 0.05 67 1008.1
20260509190836 19 191 1.6 14.5 0.00 0.05 0.05 66 1008.1
20260509190319 19 207 3.2 14.5 0.00 0.05 0.05 67 1008.1
20260509185818 19 149 3.2 11.3 0.00 0.05 0.05 68 1008.1
20260509185326 18 236 3.2 17.7 0.00 0.05 0.05 65 1008.1
20260509184832 19 83 1.6 17.7 0.00 0.05 0.05 67 1008.1
20260509184336 18 147 1.6 9.7 0.00 0.05 0.05 67 1008.1
20260509183819 18 229 4.8 11.3 0.00 0.05 0.05 67 1008.1
20260509183329 18 188 3.2 17.7 0.00 0.05 0.05 67 1008.1
20260509182813 18 155 3.2 17.7 0.00 0.05 0.05 69 1008.2
20260509182345 18 171 3.2 11.3 0.00 0.05 0.05 69 1008.2
20260509181812 18 211 4.8 11.3 0.00 0.05 0.05 69 1008.2
20260509181339 18 167 3.2 11.3 0.00 0.05 0.05 71 1008.4
20260509180825 18 161 3.2 16.1 0.00 0.05 0.05 72 1008.4
20260509180350 18 167 4.8 16.1 0.00 0.05 0.05 68 1008.4
20260509175834 18 253 3.2 11.3 0.00 0.05 0.05 71 1008.5